Temperature
17 17 18 17 17 18 18 18 18 18 18 18 18 18 18 18 18 18 18 18 18 18 18 18 18 18 18 18 18 18 18 18 18 18 18 18 18 18 18 18 18 18 18
18 18 18 18 18 17 17 17 18 18 18 18 18 18 18 18 18 18 18 18 18 18 18 18 18 18 18 18 18 18 18 18 18 18 18 18 18 18 18 18 17 17 17
18 18 18 18 17 17 17 17 17 18 18 18 18 18 18 18 18 18 18 18 18 18 18 18 17 18 18 18 18 18 18 18 18 18 18 18 17 17 17 17 17 17 17
18 18 18 18 17 17 17 17 17 17 17 17 18 18 18 18 17 17 17 17 17 17 17 17 17 17 17 17 17 17 17 17 17 17 17 17 17 17 17 17 17 17 17
18 18 18 18 17 17 17 17 17 17 17 17 17 17 17 17 17 17 17 17 17 17 17 17 17 17 17 17 17 17 17 17 17 17 17 17 17 17 17 17 17 17 17
18 18 18 18 18 17 17 17 17 17 17 17 17 17 17 17 17 17 17 17 17 17 17 17 17 17 17 17 17 17 17 17 17 17 17 17 17 17 17 17 17 17 17
18 18 18 18 18 17 17 17 17 17 17 17 17 17 17 17 17 17 17 17 17 17 17 17 17 17 17 17 17 17 17 17 17 17 17 16 16 16 16 17 17 17 17
18 18 18 18 17 17 17 17 17 17 17 17 17 17 17 17 17 17 17 17 17 17 17 17 17 17 17 17 17 17 17 17 17 16 16 16 16 16 16 16 16 16 16
18 18 18 17 17 17 17 17 17 17 17 17 17 17 17 17 17 17 17 17 17 17 17 16 16 16 16 16 16 17 17 16 16 16 16 16 16 16 16 16 16 16 16
18 18 18 17 17 17 17 17 17 17 17 17 17 17 17 17 17 17 17 16 16 16 16 16 16 16 16 16 16 16 16 16 16 16 16 16 16 16 16 16 16 16 16
18 18 18 17 17 17 17 17 17 17 17 17 17 17 17 17 17 17 16 16 16 16 16 16 16 16 16 16 16 16 16 16 16 16 16 16 16 16 16 16 16 16 15
18 18 18 18 17 17 17 17 17 17 17 17 17 17 17 17 17 17 16 16 16 16 16 16 16 16 16 16 16 16 16 16 16 16 15 15 15 16 15 15 16 15 15
18 17 17 17 17 17 17 17 17 17 17 17 17 17 16 16 16 16 16 16 16 16 16 16 16 16 16 16 16 16 16 16 16 16 15 15 15 15 15 15 15 15 15
18 18 17 17 17 17 17 17 17 17 17 17 16 16 16 16 16 16 16 16 16 16 16 16 16 16 16 15 16 16 16 16 15 15 15 15 15 15 15 15 15 15 15
17 17 17 17 17 17 17 17 17 17 17 16 16 16 16 16 16 16 16 16 16 16 16 16 16 16 16 15 15 15 15 15 15 15 15 15 15 15 15 15 15 14 14
17 17 17 17 17 17 17 17 17 17 16 16 16 16 16 16 16 16 16 16 16 16 16 16 16 16 15 15 15 15 15 15 15 15 15 15 15 15 14 14 14 14 14
17 17 17 17 17 17 17 17 16 16 16 16 16 16 16 16 16 16 16 16 16 15 15 15 15 15 15 15 15 15 15 15 15 15 15 15 15 15 14 14 14 14 14
17 17 17 17 17 17 17 17 16 16 16 16 16 16 16 16 16 16 16 16 16 15 15 15 15 15 15 15 15 15 15 14 14 14 14 14 14 14 14 14 14 14 14
17 17 17 17 17 17 17 16 16 16 16 16 16 16 16 16 16 16 16 16 15 15 15 15 15 15 15 15 15 15 14 14 14 14 14 14 14 14 14 14 14 14 14
17 17 17 17 17 17 16 16 16 16 16 16 16 16 16 16 16 16 16 15 15 15 15 15 15 15 15 15 15 14 14 14 14 14 14 14 14 14 14 14 14 13 13
17 17 17 17 17 17 16 16 16 16 16 16 16 15 16 16 15 15 15 15 15 15 15 15 15 15 15 15 15 14 14 14 14 14 14 14 14 14 13 13 13 13 13
17 17 17 17 16 16 16 16 16 16 16 16 15 15 15 15 15 15 15 15 15 15 15 15 15 15 15 14 14 14 14 14 14 14 14 13 13 13 13 13 13 13 13
17 17 16 16 16 16 16 16 16 16 15 15 15 15 15 15 15 15 15 15 15 15 15 15 14 14 14 14 14 14 14 14 13 13 13 13 13 13 13 13 13 13 13
17 16 16 16 16 16 16 16 16 15 15 15 15 15 15 15 15 15 15 15 15 15 14 14 14 14 14 14 14 14 14 14 13 13 13 13 13 13 13 13 13 13 13
16 16 16 16 16 16 15 15 15 15 15 15 15 15 15 15 15 15 15 14 14 14 14 14 14 14 14 14 14 14 14 14 13 13 13 13 13 13 13 13 13 13 13
16 16 16 15 15 15 15 15 15 15 15 15 15 15 14 14 14 14 14 14 14 14 14 14 14 14 14 14 14 14 13 13 13 13 13 13 13 13 13 13 13 13 12
Wind_Speed
3 3 3 5 7 8 9 9 10 10 10 10 11 11 11 11 11 11 11 11 10 9 9 10 10 10 10 10 9 9 9 9 10 10 9 8 8 8 8 8 7 6 7
1 2 3 5 7 8 9 9 9 10 10 10 10 10 10 11 11 11 11 11 11 11 11 11 11 10 10 10 9 10 10 10 10 10 10 9 8 8 7 8 7 6 7
1 2 3 5 7 8 8 9 10 10 10 11 10 10 11 11 11 12 12 12 12 12 12 12 11 11 10 10 9 10 10 10 11 10 9 8 7 7 7 7 7 7 7
3 3 3 5 6 7 8 10 10 10 10 11 11 11 12 12 12 12 12 12 12 13 12 12 11 11 11 10 10 9 9 10 10 9 8 7 6 7 6 6 6 6 7
3 3 3 5 6 7 8 9 9 9 10 10 11 12 12 12 12 12 12 12 12 12 12 12 11 11 10 10 10 10 10 10 10 9 8 7 6 7 7 6 6 6 7
3 3 3 5 6 7 7 8 8 9 10 11 11 11 11 11 11 11 11 12 12 12 11 11 10 10 10 10 11 11 11 11 11 9 8 7 6 7 7 7 7 7 7
3 3 3 5 6 6 6 7 8 8 10 11 11 11 10 10 10 10 10 11 11 11 12 11 11 11 11 12 12 11 11 11 10 8 7 6 6 7 7 7 8 8 7
3 4 4 5 5 5 6 6 7 8 9 10 10 10 10 10 9 10 10 10 11 11 12 12 12 12 13 13 12 12 12 10 9 7 7 6 7 8 8 8 8 7 8
4 4 5 5 6 6 6 7 7 8 8 8 9 9 9 9 10 10 10 10 10 11 11 12 12 13 13 13 13 13 13 12 9 7 7 6 8 9 9 9 8 9 9
4 4 4 5 6 6 6 6 7 7 7 8 8 8 9 9 9 9 9 9 10 11 11 12 13 13 13 13 13 13 12 10 9 8 7 8 10 10 10 10 9 9 9
3 3 3 4 5 5 5 6 6 6 7 7 7 8 8 8 8 8 9 9 10 11 11 12 12 12 12 12 12 12 10 8 8 7 7 9 10 11 11 11 10 10 10
2 2 2 2 3 4 4 6 6 6 6 7 7 7 7 7 7 7 9 9 10 10 11 11 12 11 10 9 10 10 8 9 7 6 7 9 9 10 10 11 11 11 10
0 1 2 1 2 3 3 4 5 5 5 6 6 6 6 7 7 7 7 7 8 9 9 10 10 9 8 7 7 8 8 8 7 7 7 9 10 10 10 11 11 11 11
2 1 1 1 2 2 3 3 4 4 4 4 4 5 5 4 4 4 4 5 6 6 6 7 6 7 8 8 7 7 8 7 7 7 7 9 10 10 10 10 10 11 11
1 1 1 2 2 2 2 2 3 3 3 4 4 5 5 3 2 3 3 4 5 5 5 4 5 5 5 6 6 6 6 7 7 7 7 8 9 9 9 9 9 10 10
1 1 1 2 2 2 2 2 2 2 3 4 4 3 4 4 3 3 3 3 4 4 4 4 4 4 4 4 4 5 6 6 6 7 7 7 8 8 8 9 8 9 8
2 1 1 2 2 3 2 2 3 2 3 3 3 3 3 3 3 3 2 3 3 4 5 5 5 5 4 4 3 4 4 5 5 6 6 6 7 7 8 8 7 8 8
2 2 1 2 2 2 2 2 3 3 3 3 3 3 3 3 3 3 2 2 3 4 4 3 3 3 3 3 3 3 3 4 5 5 6 6 6 6 6 7 7 7 7
3 3 2 2 2 2 2 2 3 3 3 3 3 3 2 2 2 3 2 2 3 4 3 2 3 2 2 2 3 3 3 3 3 4 4 5 5 5 5 6 6 6 6
2 2 2 2 2 2 2 2 2 3 3 3 3 2 2 2 2 3 3 3 3 3 2 3 3 3 2 1 3 4 3 3 3 4 3 4 5 5 5 5 5 5 5
2 2 2 2 1 2 2 1 1 1 1 1 2 3 2 2 2 3 2 2 2 2 2 2 2 3 2 2 2 3 3 3 4 3 3 3 4 5 5 5 4 4 4
2 2 1 1 2 2 1 1 1 1 0 0 2 3 3 2 2 2 2 2 2 2 3 2 3 2 1 2 2 2 2 3 3 3 3 2 3 4 4 4 4 4 3
2 2 2 2 1 2 2 2 2 3 2 2 2 3 3 2 1 2 2 2 2 2 2 2 2 2 1 1 2 2 2 2 1 3 2 2 2 2 3 3 4 3 3
3 2 1 1 1 1 3 3 3 2 1 2 1 1 2 3 2 2 2 2 2 1 2 1 2 1 2 1 1 2 1 2 2 1 2 2 2 2 3 3 4 4 3
3 2 1 1 2 2 2 3 3 1 1 1 1 1 2 2 3 2 2 2 1 1 1 1 2 2 2 2 2 1 2 2 2 2 1 3 2 2 2 2 2 3 3
1 1 2 2 1 2 2 2 2 1 1 0 1 1 2 2 2 2 2 2 1 1 1 1 2 2 2 2 2 2 2 2 1 2 1 1 2 2 2 2 2 2 3
Wind_Direction
297 307 3 64 71 76 74 72 72 71 73 75 76 77 80 83 85 85 84 82 81 85 91 92 91 90 88 84 79 79 81 83 82 85 91 98 97 93 91 92 91 94 99
251 326 31 72 77 77 76 74 71 71 73 74 75 77 80 81 82 81 81 78 76 79 86 88 85 86 85 82 78 77 77 78 77 77 75 75 81 85 88 90 92 92 94
104 45 60 86 85 82 78 75 73 73 72 74 75 76 82 84 81 80 78 75 72 75 83 84 82 80 81 83 82 79 76 76 75 72 66 59 67 78 86 93 94 94 93
102 72 69 90 87 84 81 78 75 73 73 75 75 77 83 83 83 82 78 75 74 74 79 81 80 77 78 81 82 82 81 79 76 70 63 59 65 73 78 89 93 90 91
81 68 72 93 89 86 85 83 79 75 76 78 79 78 80 81 82 80 76 74 73 75 77 81 81 78 78 78 79 81 82 79 75 68 63 60 62 71 74 80 89 92 92
73 60 71 94 93 87 84 86 83 80 80 81 81 81 81 80 80 79 75 74 72 73 75 77 79 78 77 77 77 78 76 74 68 64 62 59 59 68 73 79 88 89 90
75 48 56 84 89 87 84 82 81 80 79 80 82 82 80 78 76 75 73 75 73 72 72 73 74 75 77 75 75 75 73 70 66 64 61 57 62 66 71 79 82 81 82
80 54 48 66 76 81 83 81 80 80 80 78 80 79 77 76 74 74 74 76 75 74 71 70 72 76 77 76 74 73 71 69 66 64 58 60 68 68 69 74 75 75 77
63 55 39 39 50 64 75 77 76 76 79 78 77 77 75 74 72 71 71 73 74 73 73 73 77 77 77 76 74 72 69 65 60 57 61 64 68 69 71 72 74 76 74
56 48 37 33 40 48 55 67 70 69 70 70 69 69 69 66 63 64 67 72 73 73 73 75 76 77 76 73 71 69 64 57 54 53 56 68 70 70 71 70 73 75 75
53 36 35 33 33 40 48 60 61 65 63 62 58 60 60 54 52 55 62 71 71 73 73 74 75 76 74 69 66 64 57 53 56 52 58 69 68 68 67 66 70 75 76
25 6 30 40 40 41 51 56 53 58 59 58 56 54 55 54 50 56 58 64 65 67 68 70 72 70 67 61 59 58 54 51 52 47 58 68 70 69 68 68 70 74 76
46 26 35 40 50 50 48 54 50 53 54 54 53 58 59 53 48 48 47 47 51 55 57 62 62 61 63 62 60 57 55 54 49 45 53 66 71 72 71 71 71 75 76
78 33 30 50 56 50 60 59 57 56 53 48 52 63 68 60 49 47 50 46 49 53 61 65 68 66 66 64 64 60 55 56 51 47 53 63 70 73 73 72 73 75 74
90 45 47 70 68 60 66 59 65 61 63 58 56 60 73 73 56 53 55 55 54 59 65 67 70 68 64 61 61 62 56 54 53 52 49 55 65 71 72 70 76 76 73
140 138 95 86 73 68 73 76 70 62 69 68 59 59 75 83 77 65 53 50 50 60 71 79 77 75 68 68 57 55 56 55 54 53 50 49 56 63 66 67 74 76 72
186 174 140 121 85 79 67 70 76 66 70 69 63 60 66 78 82 81 70 51 47 67 76 79 73 71 71 68 56 49 53 52 52 51 49 48 48 54 61 62 71 75 71
157 153 149 133 103 89 75 66 70 74 75 64 62 63 63 69 85 88 76 52 60 76 75 77 73 71 66 64 59 43 46 47 44 47 50 47 45 42 47 54 68 73 69
162 155 136 112 114 113 93 73 71 69 68 63 62 60 55 59 88 100 85 68 80 78 69 81 69 82 80 63 66 54 42 42 32 40 43 42 42 41 41 43 53 58 60
138 128 123 107 107 110 89 65 57 52 42 48 50 46 55 65 78 93 81 69 80 81 65 75 82 68 80 78 73 60 42 37 38 36 32 37 38 37 39 36 30 34 45
99 104 122 114 115 108 88 92 84 33 359 9 17 17 38 54 83 95 79 76 78 96 97 100 97 79 55 52 74 47 26 35 42 34 27 31 29 26 32 28 23 23 25
158 149 136 140 143 140 151 162 151 146 308 329 6 9 14 26 65 104 97 107 99 101 91 93 99 98 61 50 95 90 30 6 5 17 17 25 14 18 20 19 24 23 21
183 191 184 176 155 151 126 91 65 53 32 17 1 346 349 1 30 86 102 104 106 119 123 115 111 115 121 47 58 122 130 209 315 345 3 13 9 10 358 6 13 6 17
216 207 179 154 125 128 124 117 116 128 192 249 261 287 335 15 20 71 104 105 103 105 116 141 128 130 131 123 47 47 99 147 142 332 333 347 1 358 348 359 1 1 11
199 177 153 112 97 98 123 139 136 164 237 273 317 352 358 7 19 38 74 93 110 113 123 122 104 110 118 138 137 112 78 61 81 143 275 320 337 326 332 346 353 356 1
146 127 111 109 95 94 116 127 143 178 249 357 348 344 341 345 353 16 42 57 72 100 124 132 125 118 122 120 118 115 130 133 158 144 190 273 299 310 326 336 349 343 344
Height
1515 1514 1514 1513 1512 1512 1511 1511 1510 1510 1510 1509 1509 1508 1508 1508 1508 1508 1509 1509 1509 1508 1509 1509 1510 1511 1512 1512 1513 1513 1513 1514 1514 1515 1515 1516 1517 1517 1518 1518 1519 1520 1520
1516 1515 1515 1514 1514 1513 1513 1512 1512 1512 1511 1511 1510 1509 1509 1509 1510 1510 1510 1510 1510 1509 1509 1511 1511 1512 1513 1513 1514 1514 1515 1515 1515 1516 1516 1516 1517 1518 1518 1519 1520 1520 1521
1517 1517 1516 1516 1515 1515 1514 1514 1513 1513 1513 1512 1511 1510 1509 1510 1511 1512 1512 1511 1511 1510 1510 1512 1513 1513 1514 1514 1515 1515 1516 1516 1516 1516 1517 1517 1518 1518 1519 1519 1520 1521 1521
1518 1518 1517 1517 1517 1516 1516 1515 1515 1515 1514 1514 1513 1511 1511 1512 1513 1513 1514 1513 1513 1513 1513 1513 1514 1515 1515 1516 1516 1516 1517 1517 1517 1517 1517 1518 1518 1519 1519 1520 1520 1521 1521
1520 1519 1519 1518 1518 1518 1517 1517 1517 1516 1516 1516 1515 1514 1514 1514 1514 1515 1515 1515 1515 1515 1515 1516 1516 1517 1517 1517 1517 1517 1517 1517 1517 1518 1518 1518 1519 1519 1520 1520 1521 1521 1521
1521 1521 1520 1520 1519 1519 1519 1519 1519 1518 1518 1517 1517 1517 1516 1517 1517 1517 1517 1517 1517 1517 1518 1518 1518 1518 1518 1518 1518 1518 1518 1518 1518 1518 1519 1519 1519 1520 1520 1520 1521 1521 1521
1523 1523 1522 1522 1521 1521 1521 1520 1520 1520 1519 1519 1519 1519 1519 1519 1519 1519 1519 1518 1519 1519 1519 1519 1519 1519 1519 1519 1519 1519 1519 1519 1519 1519 1519 1519 1520 1520 1520 1521 1521 1521 1521
1525 1524 1524 1524 1523 1523 1523 1522 1522 1522 1521 1521 1521 1521 1521 1521 1521 1521 1521 1521 1521 1521 1521 1521 1521 1521 1520 1520 1520 1520 1520 1520 1520 1520 1520 1520 1520 1521 1521 1521 1521 1522 1522
1526 1526 1526 1525 1525 1525 1524 1524 1524 1524 1523 1523 1523 1523 1523 1523 1523 1523 1523 1523 1523 1523 1523 1523 1523 1522 1522 1522 1521 1521 1521 1521 1521 1520 1521 1521 1521 1521 1522 1522 1522 1522 1522
1528 1528 1527 1527 1527 1527 1526 1526 1526 1526 1525 1525 1525 1525 1525 1525 1525 1525 1525 1525 1525 1525 1525 1525 1524 1524 1524 1523 1523 1522 1522 1521 1521 1521 1521 1522 1522 1522 1522 1522 1522 1522 1522
1529 1529 1529 1529 1528 1528 1528 1528 1528 1528 1527 1527 1527 1527 1527 1527 1527 1527 1527 1527 1527 1527 1527 1526 1526 1526 1525 1525 1524 1524 1523 1522 1522 1522 1522 1523 1523 1523 1523 1523 1523 1523 1523
1530 1530 1530 1530 1530 1530 1530 1530 1530 1529 1529 1529 1529 1529 1529 1529 1528 1528 1528 1528 1528 1528 1528 1528 1528 1527 1527 1526 1526 1525 1524 1523 1523 1523 1523 1524 1524 1524 1524 1524 1524 1523 1523
1531 1531 1531 1532 1532 1532 1532 1532 1531 1531 1531 1531 1531 1531 1530 1530 1530 1530 1530 1530 1530 1530 1530 1529 1529 1529 1528 1528 1527 1527 1526 1525 1525 1525 1525 1525 1525 1525 1525 1525 1524 1524 1524
1532 1532 1533 1533 1533 1533 1533 1533 1533 1533 1533 1532 1532 1532 1532 1532 1531 1531 1531 1531 1531 1531 1531 1531 1530 1530 1530 1529 1529 1528 1527 1527 1527 1526 1526 1527 1526 1526 1526 1525 1525 1525 1524
1533 1533 1533 1533 1534 1534 1534 1534 1534 1534 1534 1534 1534 1534 1533 1533 1533 1532 1532 1532 1532 1532 1532 1532 1531 1531 1531 1530 1530 1529 1529 1529 1528 1528 1528 1528 1527 1527 1527 1526 1526 1525 1525
1533 1533 1534 1534 1534 1534 1535 1535 1535 1535 1535 1535 1535 1535 1534 1534 1534 1534 1533 1533 1533 1533 1533 1533 1532 1532 1532 1531 1531 1530 1530 1530 1530 1530 1529 1529 1528 1528 1527 1527 1526 1526 1526
1533 1534 1534 1535 1535 1535 1535 1536 1536 1536 1536 1536 1536 1535 1535 1535 1535 1534 1534 1534 1533 1533 1533 1533 1533 1533 1532 1532 1532 1532 1531 1531 1531 1531 1530 1530 1529 1529 1528 1528 1527 1527 1527
1534 1534 1535 1535 1535 1536 1536 1536 1536 1537 1537 1537 1536 1536 1536 1536 1535 1535 1534 1534 1534 1534 1534 1534 1533 1533 1533 1533 1533 1533 1532 1532 1532 1532 1531 1531 1530 1530 1529 1529 1528 1528 1528
1534 1534 1535 1535 1536 1536 1536 1537 1537 1537 1537 1537 1537 1537 1536 1536 1536 1535 1535 1535 1534 1534 1534 1534 1534 1534 1534 1533 1533 1533 1533 1533 1533 1532 1532 1532 1531 1531 1530 1530 1529 1529 1528
1533 1534 1535 1535 1536 1536 1536 1537 1537 1537 1537 1537 1536 1536 1536 1536 1536 1535 1535 1535 1535 1534 1534 1534 1534 1534 1534 1534 1534 1533 1533 1534 1533 1533 1533 1533 1532 1531 1531 1530 1530 1529 1529
1533 1533 1534 1534 1535 1535 1536 1536 1536 1536 1536 1536 1536 1536 1536 1536 1536 1536 1535 1535 1534 1534 1534 1534 1534 1534 1534 1534 1534 1534 1534 1534 1534 1534 1533 1533 1532 1532 1531 1531 1530 1530 1529
1531 1532 1533 1533 1534 1534 1535 1535 1536 1536 1536 1536 1536 1536 1536 1536 1535 1535 1535 1534 1534 1533 1533 1533 1533 1533 1533 1533 1534 1533 1534 1535 1534 1534 1533 1533 1533 1532 1531 1531 1530 1529 1529
1530 1531 1531 1532 1533 1533 1534 1534 1535 1535 1535 1535 1535 1535 1535 1535 1534 1534 1534 1534 1533 1533 1532 1532 1532 1532 1532 1533 1533 1534 1533 1533 1533 1534 1533 1533 1532 1532 1531 1530 1530 1529 1529
1528 1529 1530 1531 1532 1532 1533 1533 1533 1533 1533 1534 1534 1534 1534 1534 1534 1533 1533 1533 1533 1532 1532 1531 1531 1531 1532 1532 1532 1532 1533 1532 1533 1533 1533 1533 1532 1531 1530 1530 1529 1529 1528
1527 1528 1529 1530 1530 1531 1531 1532 1532 1532 1532 1533 1533 1533 1533 1532 1532 1532 1532 1532 1531 1531 1531 1530 1530 1531 1531 1531 1531 1531 1531 1531 1532 1532 1531 1532 1531 1531 1530 1530 1529 1528 1528
1525 1526 1527 1528 1529 1529 1530 1530 1531 1531 1531 1531 1531 1531 1531 1531 1531 1530 1530 1530 1530 1529 1529 1529 1529 1529 1529 1530 1530 1530 1530 1530 1530 1530 1530 1530 1529 1529 1529 1529 1528 1528 1527